1494349200.64,58073,14.81,72536.3,-11.31,-12.43,-12.43,0,*6B
1494349201.86,58074,14.81,72522.5,-11.31,-12.43,-12.43,0,*6C
1494349203.1,58075,14.81,72540.0,-11.31,-12.35,-12.43,0,*6C
1494349204.32,58076,14.81,72550.8,-11.31,-12.43,-12.43,0,*6E
1494349205.53,58077,14.81,72528.0,-11.27,-12.39,-12.29,0,*69
1494349206.78,58078,14.81,72516.8,-11.31,-12.47,-12.35,0,*65
1494349208.02,58079,14.81,72518.8,-11.33,-12.43,-12.47,0,*67
1494349209.29,58080,14.81,72524.0,-11.33,-12.43,-12.35,0,*64
1494349210.53,58081,14.81,72520.8,-11.31,-12.43,-12.35,0,*67
1494349211.8,58082,14.81,72520.8,-11.33,-12.43,-12.35,0,*66
1494349213.01,58083,14.81,72530.8,-11.35,-12.39,-12.47,0,*69
1494349214.25,58084,14.81,72526.3,-11.33,-12.43,-12.43,0,*61
1494349215.52,58085,14.81,72516.3,-11.33,-12.35,-12.43,0,*61
1494349216.76,58086,14.81,72532.8,-11.35,-12.47,-12.35,0,*60
1494349218.03,58087,14.81,72538.5,-11.33,-12.43,-12.35,0,*63
1494349219.3,58088,14.81,72556.3,-11.33,-12.35,-12.43,0,*6C
1494349220.56,58089,14.81,72548.0,-11.33,-12.43,-12.35,0,*6D
1494349221.78,58090,14.81,72542.8,-11.35,-12.47,-12.47,0,*62
1494349223.02,58091,14.81,72524.3,-11.33,-12.43,-12.43,0,*65
1494349224.26,58092,14.81,72526.0,-11.33,-12.43,-12.43,0,*66
1494349225.52,58093,14.81,72528.3,-11.33,-12.43,-12.35,0,*66
1494349226.74,58094,14.81,72528.3,-11.35,-12.47,-12.39,0,*6F
1494349227.98,58095,14.81,72528.3,-11.35,-12.35,-12.39,0,*6B
1494349229.2,58096,14.81,72530.8,-11.35,-12.47,-12.39,0,*6D
1494349230.44,58097,14.81,72534.0,-11.33,-12.43,-12.43,0,*63
1494349231.71,58098,14.81,72528.0,-11.33,-12.43,-12.35,0,*6D
1494349232.93,58099,14.81,72516.3,-11.35,-12.47,-12.39,0,*62
1494349234.16,58100,14.81,72520.3,-11.33,-12.43,-12.43,0,*6C
1494349235.38,58101,14.81,72518.0,-11.35,-12.47,-12.39,0,*62
1494349236.6,58102,14.81,72524.5,-11.35,-12.39,-12.47,0,*61
1494349237.82,58103,14.81,72528.8,-11.35,-12.47,-12.47,0,*69
1494349239.08,58104,14.81,72538.8,-11.33,-12.43,-12.35,0,*69
1494349240.3,58105,14.81,72536.0,-11.35,-12.39,-12.39,0,*6F
1494349241.51,58106,14.81,72534.3,-11.35,-12.39,-12.39,0,*6C
1494349242.78,58107,14.81,72534.8,-11.33,-12.43,-12.35,0,*6A
1494349244.0,58108,14.81,72540.0,-11.35,-12.39,-12.39,0,*62
1494349245.21,58109,14.81,72536.5,-11.35,-12.39,-12.39,0,*63
1494349246.48,58110,14.81,72524.3,-11.33,-12.35,-12.43,0,*6C
1494349247.7,58111,14.81,72526.5,-11.35,-12.47,-12.39,0,*63
1494349248.92,58112,14.81,72532.8,-11.35,-12.47,-12.39,0,*60
1494349250.13,58113,14.81,72536.0,-11.35,-12.47,-12.39,0,*61
1494349251.35,58114,14.81,72544.8,-11.35,-12.47,-12.39,0,*66
1494349252.59,58115,14.81,72524.0,-11.37,-12.39,-12.39,0,*6C
1494349253.81,58116,14.81,72512.0,-11.35,-12.47,-12.39,0,*64
1494349255.03,58117,14.81,72508.0,-11.35,-12.39,-12.39,0,*6C
1494349256.24,58118,14.81,72512.8,-11.35,-12.39,-12.39,0,*63
1494349257.49,58119,14.81,72524.0,-11.39,-12.43,-12.35,0,*6F
1494349258.77,58120,14.81,72550.8,-11.37,-12.25,-12.35,0,*6B
1494349259.98,58121,14.81,72550.3,-11.35,-12.39,-12.39,0,*69
1494349261.28,58122,14.81,72546.0,-11.37,-12.35,-12.35,0,*68
1494349262.58,58123,14.81,72546.8,-11.37,-12.35,-12.35,0,*69
1494349263.85,58124,14.81,72550.0,-11.37,-12.39,-12.35,0,*62
1494349265.12,58125,14.81,72546.0,-11.37,-12.39,-12.35,0,*63
1494349266.39,58126,14.81,72544.3,-11.37,-12.39,-12.35,0,*60
1494349267.66,58127,14.81,72542.5,-11.37,-12.35,-12.39,0,*61
1494349268.88,58128,14.81,72540.0,-11.39,-12.43,-12.29,0,*60
1494349270.15,58129,14.81,72544.5,-11.37,-12.39,-12.35,0,*6F
1494349271.39,58130,14.81,72544.3,-11.37,-12.39,-12.39,0,*6B
1494349272.64,58131,14.81,72542.0,-11.37,-12.39,-12.39,0,*6A
1494349273.88,58132,14.81,72540.0,-11.39,-12.39,-12.35,0,*6B
1494349275.15,58133,14.81,72534.5,-11.37,-12.39,-12.35,0,*64
1494349276.42,58134,14.81,72522.0,-11.37,-12.39,-12.35,0,*63
1494349277.67,58135,14.81,72494.5,-11.37,-12.39,-12.39,0,*6E
1494349278.91,58136,14.81,72510.8,-11.39,-12.47,-12.35,0,*66
1494349280.16,58137,14.81,72520.8,-11.37,-12.39,-12.39,0,*6C
1494349281.41,58138,14.81,72522.0,-11.39,-12.53,-12.43,0,*6C
1494349282.68,58139,14.81,72512.8,-11.37,-12.35,-12.39,0,*6E
1494349283.92,58140,14.81,72522.5,-11.37,-12.47,-12.39,0,*65
1494349285.14,58141,14.81,72504.5,-11.39,-12.43,-12.43,0,*63
1494349286.38,58142,14.81,72520.3,-11.37,-12.39,-12.39,0,*6E
1494349287.63,58143,14.81,72534.8,-11.39,-12.53,-12.43,0,*60
1494349288.9,58144,14.81,72542.3,-11.37,-12.39,-12.35,0,*64
1494349290.12,58145,14.81,72528.0,-11.39,-12.43,-12.43,0,*67
1494349291.37,58146,14.81,72528.5,-11.39,-12.53,-12.43,0,*65
1494349292.64,58147,14.81,72520.5,-11.39,-12.53,-12.53,0,*65
1494349293.89,58148,14.81,72526.3,-11.37,-12.39,-12.39,0,*64
1494349295.13,58149,14.81,72534.8,-11.37,-12.47,-12.39,0,*6C
1494349296.35,58150,14.81,72532.3,-11.39,-12.43,-12.43,0,*63
1494349297.59,58151,14.81,72510.8,-11.37,-12.39,-12.39,0,*6C
1494349298.81,58152,14.81,72514.0,-11.39,-12.43,-12.39,0,*6C
1494349300.03,58153,14.81,72534.3,-11.39,-12.43,-12.39,0,*6D
1494349301.28,58154,14.81,72520.5,-11.39,-12.53,-12.43,0,*66
1494349302.5,58155,14.81,72518.3,-11.39,-12.43,-12.43,0,*66
1494349303.74,58156,14.81,72528.0,-11.37,-12.39,-12.39,0,*6B
1494349304.96,58157,14.81,72522.5,-11.39,-12.39,-12.39,0,*64
1494349306.18,58158,14.81,72534.8,-11.39,-12.39,-12.39,0,*6B
1494349307.4,58159,14.81,72544.0,-11.39,-12.43,-12.29,0,*66
1494349308.62,58160,14.81,72544.5,-11.39,-12.39,-12.39,0,*60
1494349309.84,58161,14.81,72550.3,-11.39,-12.39,-12.29,0,*60
1494349311.06,58162,14.81,72542.5,-11.39,-12.29,-12.39,0,*63
1494349312.28,58163,14.81,72548.8,-11.39,-12.39,-12.39,0,*63
1494349313.51,58164,14.81,72546.5,-11.39,-12.29,-12.39,0,*65
1494349314.73,58165,14.81,72540.0,-11.39,-12.29,-12.29,0,*65
1494349315.95,58166,14.81,72528.8,-11.39,-12.39,-12.39,0,*66
1494349317.18,58167,14.81,72534.0,-11.39,-12.29,-12.29,0,*67
1494349318.39,58168,14.81,72536.5,-11.41,-12.39,-12.39,0,*67
1494349319.59,58169,14.81,72540.0,-11.41,-12.39,-12.39,0,*66
1494349320.8,58170,14.81,72534.5,-11.41,-12.39,-12.39,0,*6E
1494349322.01,58171,14.81,72534.3,-11.41,-12.39,-12.29,0,*6E
1494349323.25,58172,14.81,72536.0,-11.43,-12.43,-12.43,0,*6E
1494349324.47,58173,14.81,72542.8,-11.39,-12.39,-12.39,0,*62
1494349325.69,58174,14.81,72538.5,-11.39,-12.39,-12.39,0,*65
1494349326.9,58175,14.81,72540.8,-11.39,-12.39,-12.39,0,*64
1494349328.12,58176,14.81,72544.3,-11.39,-12.39,-12.39,0,*67
1494349329.33,58177,14.81,72544.3,-11.41,-12.43,-12.43,0,*69
1494349330.54,58178,14.81,72534.5,-11.41,-12.43,-12.39,0,*6B
1494349331.75,58179,14.81,72524.8,-11.41,-12.39,-12.39,0,*67
1494349332.96,58180,14.81,72520.3,-11.41,-12.43,-12.29,0,*6D
1494349334.16,58181,14.81,72508.8,-11.41,-12.43,-12.39,0,*6D
1494349335.37,58182,14.81,72502.3,-11.41,-12.43,-12.39,0,*6E
1494349336.61,58183,14.81,72516.3,-11.41,-12.43,-12.53,0,*63
1494349337.84,58184,14.81,72508.3,-11.43,-12.47,-12.47,0,*67
1494349339.11,58185,14.81,72532.8,-11.41,-12.53,-12.53,0,*64
1494349340.35,58186,14.81,72528.8,-11.41,-12.53,-12.39,0,*6B
1494349341.55,58187,14.81,72516.8,-11.41,-12.43,-12.39,0,*6B
1494349342.79,58188,14.81,72464.8,-11.41,-12.43,-12.53,0,*68
1494349344.03,58189,14.81,72512.3,-11.41,-12.53,-12.43,0,*69
1494349345.24,58190,14.81,72522.3,-11.41,-12.43,-12.39,0,*6D
1494349346.44,58191,14.81,72516.8,-11.41,-12.43,-12.39,0,*6C
1494349347.68,58192,14.81,72528.5,-11.43,-12.47,-12.47,0,*60
1494349348.92,58193,14.81,72522.3,-11.43,-12.47,-12.47,0,*61
1494349350.13,58194,14.81,72508.5,-11.41,-12.43,-12.43,0,*64
1494349351.36,58195,14.81,72516.5,-11.41,-12.53,-12.43,0,*64
1494349352.6,58196,14.81,72518.0,-11.43,-12.47,-12.43,0,*60
1494349353.84,58197,14.81,72512.0,-11.43,-12.47,-12.47,0,*65
1494349355.05,58198,14.81,72516.5,-11.41,-12.43,-12.43,0,*68
1494349356.28,58199,14.81,72516.5,-11.43,-12.43,-12.47,0,*6F
1494349357.52,58200,14.81,72490.3,-11.43,-12.47,-12.43,0,*6C
1494349358.78,58201,14.81,72462.3,-11.43,-12.57,-12.47,0,*68
1494349360.04,58202,14.81,72464.8,-11.43,-12.57,-12.47,0,*6B
1494349361.3,58203,14.81,72504.3,-11.43,-12.57,-12.47,0,*6A
1494349362.56,58204,14.81,72500.3,-11.43,-12.57,-12.47,0,*6D
1494349363.8,58205,14.81,72538.5,-11.43,-12.47,-12.47,0,*6D
1494349365.04,58206,14.81,72530.8,-11.43,-12.43,-12.47,0,*6A
1494349366.27,58207,14.81,72536.0,-11.43,-12.43,-12.39,0,*62
1494349367.51,58208,14.81,72534.8,-11.43,-12.43,-12.43,0,*60
1494349368.71,58209,14.81,72518.5,-11.41,-12.39,-12.43,0,*6E
1494349369.95,58210,14.81,72510.5,-11.43,-12.47,-12.47,0,*69
1494349371.19,58211,14.81,72520.5,-11.43,-12.47,-12.43,0,*6C
1494349372.43,58212,14.81,72494.3,-11.43,-12.47,-12.43,0,*6F
1494349373.66,58213,14.81,72488.8,-11.43,-12.43,-12.43,0,*6A
1494349374.87,58214,14.81,72490.0,-11.45,-12.43,-12.43,0,*6B
1494349376.08,58215,14.81,72502.3,-11.45,-12.43,-12.43,0,*6A
1494349377.35,58216,14.81,72526.3,-11.43,-12.47,-12.35,0,*6A
1494349378.64,58217,14.81,72512.5,-11.43,-12.35,-12.35,0,*6E
1494349379.9,58218,14.81,72506.5,-11.43,-12.43,-12.35,0,*60
1494349381.16,58219,14.81,72518.5,-11.43,-12.43,-12.35,0,*61
1494349382.46,58220,14.81,72510.8,-11.43,-12.35,-12.35,0,*6A
1494349383.69,58221,14.81,72532.3,-11.43,-12.43,-12.43,0,*6B
1494349384.95,58222,14.81,72532.8,-11.43,-12.35,-12.43,0,*69
1494349386.22,58223,14.81,72520.3,-11.43,-12.35,-12.43,0,*68
1494349387.48,58224,14.81,72516.0,-11.43,-12.43,-12.35,0,*6F
1494349388.71,58225,14.81,72514.0,-11.43,-12.43,-12.43,0,*6F
1494349390.01,58226,14.81,72506.8,-11.43,-12.35,-12.35,0,*6C
1494349391.24,58227,14.81,72510.8,-11.43,-12.43,-12.43,0,*6D
1494349392.53,58228,14.81,72522.0,-11.43,-12.35,-12.35,0,*62
1494349393.8,58229,14.81,72532.3,-11.43,-12.43,-12.35,0,*62
1494349395.03,58230,14.81,72532.0,-11.43,-12.43,-12.43,0,*6B
1494349396.26,58231,14.81,72526.5,-11.43,-12.43,-12.43,0,*6A
1494349397.56,58232,14.81,72524.8,-11.43,-12.35,-12.35,0,*69
1494349398.82,58233,14.81,72524.8,-11.43,-12.35,-12.43,0,*69
1494349400.03,58234,14.81,72506.5,-11.45,-12.43,-12.43,0,*69
1494349401.27,58235,14.81,72510.0,-11.45,-12.43,-12.35,0,*69
1494349402.51,58236,14.81,72530.3,-11.45,-12.43,-12.35,0,*6A
1494349403.75,58237,14.81,72526.3,-11.45,-12.35,-12.43,0,*6B
1494349405.02,58238,14.81,72532.3,-11.45,-12.35,-12.35,0,*65
1494349406.23,58239,14.81,72526.0,-11.45,-12.39,-12.47,0,*6D
1494349407.47,58240,14.81,72530.3,-11.45,-12.43,-12.35,0,*6B
1494349408.71,58241,14.81,72534.0,-11.47,-12.47,-12.47,0,*69
1494349409.95,58242,14.81,72532.0,-11.45,-12.43,-12.35,0,*69
1494349411.16,58243,14.81,72542.0,-11.45,-12.43,-12.43,0,*69
1494349412.43,58244,14.81,72534.3,-11.45,-12.35,-12.35,0,*6E
1494349413.67,58245,14.81,72532.5,-11.47,-12.47,-12.47,0,*6D
1494349414.88,58246,14.81,72530.5,-11.45,-12.43,-12.43,0,*6C
1494349416.14,58247,14.81,72524.5,-11.47,-12.53,-12.47,0,*6A
1494349417.36,58248,14.81,72518.8,-11.45,-12.43,-12.39,0,*6F
1494349418.57,58249,14.81,72530.3,-11.45,-12.43,-12.43,0,*63
1494349419.78,58250,14.81,72544.8,-11.45,-12.43,-12.47,0,*6F
1494349420.99,58251,14.81,72542.0,-11.45,-12.43,-12.43,0,*6A
1494349422.23,58252,14.81,72532.3,-11.47,-12.47,-12.47,0,*6B
1494349423.47,58253,14.81,72528.5,-11.47,-12.47,-12.47,0,*6A
1494349424.74,58254,14.81,72528.3,-11.45,-12.35,-12.35,0,*6F
1494349425.95,58255,14.81,72522.8,-11.45,-12.43,-12.43,0,*6E
1494349427.21,58256,14.81,72530.3,-11.47,-12.61,-12.47,0,*6B
1494349428.45,58257,14.81,72530.5,-11.47,-12.47,-12.47,0,*6E
1494349429.66,58258,14.81,72530.3,-11.45,-12.47,-12.47,0,*63
1494349430.88,58259,14.81,72532.8,-11.45,-12.47,-12.43,0,*66
1494349432.12,58260,14.81,72528.0,-11.45,-12.57,-12.47,0,*69
1494349433.36,58261,14.81,72520.8,-11.47,-12.47,-12.47,0,*6B
1494349434.57,58262,14.81,72512.0,-11.45,-12.47,-12.43,0,*6E
1494349435.81,58263,14.81,72524.0,-11.47,-12.47,-12.47,0,*69
1494349437.05,58264,14.81,72508.5,-11.47,-12.39,-12.47,0,*67
1494349438.29,58265,14.81,72516.0,-11.47,-12.47,-12.47,0,*6F
1494349439.53,58266,14.81,72520.3,-11.47,-12.47,-12.39,0,*65
1494349440.77,58267,14.81,72538.8,-11.47,-12.39,-12.47,0,*64
1494349442.04,58268,14.81,72534.8,-11.45,-12.35,-12.35,0,*60
1494349443.28,58269,14.81,72524.0,-11.47,-12.47,-12.39,0,*6A
1494349444.52,58270,14.81,72518.3,-11.47,-12.47,-12.47,0,*6B
1494349445.76,58271,14.81,72534.5,-11.47,-12.39,-12.39,0,*6A
1494349447.02,58272,14.81,72542.3,-11.45,-12.35,-12.35,0,*6B
1494349448.26,58273,14.81,72538.5,-11.47,-12.39,-12.39,0,*68
1494349449.5,58274,14.81,72524.3,-11.47,-12.47,-12.39,0,*66
1494349450.74,58275,14.81,72528.8,-11.47,-12.47,-12.39,0,*67
1494349451.98,58276,14.81,72528.0,-11.47,-12.39,-12.39,0,*6D
1494349453.22,58277,14.75,72526.3,-11.47,-12.47,-12.39,0,*65
1494349454.46,58278,14.81,72522.0,-11.47,-12.47,-12.39,0,*6A
1494349455.7,58279,14.81,72528.8,-11.47,-12.39,-12.39,0,*62
1494349456.94,58280,14.81,72534.0,-11.47,-12.47,-12.47,0,*64
1494349458.18,58281,14.81,72548.0,-11.45,-12.35,-12.43,0,*66
1494349459.42,58282,14.81,72536.8,-11.47,-12.47,-12.47,0,*66
1494349460.66,58283,14.81,72528.3,-11.47,-12.47,-12.47,0,*67
1494349461.9,58284,14.81,72542.0,-11.47,-12.39,-12.39,0,*60
1494349463.14,58285,14.81,72538.3,-11.47,-12.47,-12.47,0,*61
1494349464.38,58286,14.81,72546.5,-11.47,-12.47,-12.39,0,*6B
1494349465.62,58287,14.81,72542.8,-11.47,-12.47,-12.47,0,*63
1494349466.87,58288,14.81,72524.0,-11.47,-12.47,-12.47,0,*6C
1494349468.11,58289,14.81,72510.3,-11.47,-12.47,-12.47,0,*6D
1494349469.35,58290,14.81,72530.5,-11.47,-12.47,-12.47,0,*65
1494349470.61,58291,14.81,72540.8,-11.47,-12.47,-12.53,0,*61
1494349471.85,58292,14.81,72546.5,-11.49,-12.47,-12.53,0,*6C
1494349473.09,58293,14.81,72542.5,-11.47,-12.47,-12.47,0,*66
1494349474.31,58294,14.81,72536.8,-11.49,-12.47,-12.47,0,*6F
1494349475.52,58295,14.81,72536.3,-11.49,-12.47,-12.47,0,*6E
1494349476.79,58296,14.81,72538.0,-11.49,-12.53,-12.53,0,*6D
1494349478.03,58297,14.81,72544.0,-11.49,-12.53,-12.47,0,*69
1494349479.27,58298,14.81,72552.5,-11.49,-12.53,-12.47,0,*66
1494349480.51,58299,14.81,72562.0,-11.49,-12.53,-12.47,0,*67
1494349481.76,58300,14.81,72560.8,-11.49,-12.53,-12.47,0,*66
1494349483.0,58301,14.81,72558.0,-11.49,-12.53,-12.47,0,*67
1494349484.26,58302,14.81,72554.3,-11.49,-12.53,-12.61,0,*60
1494349485.53,58303,14.81,72546.5,-11.49,-12.53,-12.53,0,*60
1494349486.8,58304,14.81,72546.0,-11.49,-12.53,-12.53,0,*67
1494349488.04,58305,14.81,72544.0,-11.49,-12.53,-12.47,0,*63
1494349489.28,58306,14.81,72542.0,-11.49,-12.53,-12.47,0,*60
1494349490.57,58307,14.81,72542.0,-11.51,-12.53,-12.57,0,*69
1494349491.81,58308,14.81,72532.8,-11.49,-12.47,-12.53,0,*6E
1494349493.07,58309,14.81,72528.8,-11.49,-12.65,-12.57,0,*6B
1494349494.34,58310,14.81,72552.0,-11.49,-12.53,-12.53,0,*62
1494349495.58,58311,14.81,72548.5,-11.49,-12.47,-12.53,0,*66
1494349496.84,58312,14.81,72546.8,-11.51,-12.43,-12.53,0,*68
1494349498.14,58313,14.81,72542.5,-11.51,-12.53,-12.53,0,*68
1494349499.35,58314,14.75,72546.5,-11.49,-12.47,-12.39,0,*6F
1494349500.56,58315,14.81,72556.3,-11.49,-12.47,-12.47,0,*67
1494349501.78,58316,14.81,72556.0,-11.49,-12.47,-12.47,0,*64
1494349502.99,58317,14.81,72548.8,-11.49,-12.47,-12.47,0,*65
1494349504.28,58318,14.81,72556.3,-11.51,-12.53,-12.53,0,*63
1494349505.58,58319,14.81,72548.8,-11.51,-12.53,-12.53,0,*62
1494349506.84,58320,14.81,72546.5,-11.51,-12.53,-12.43,0,*69
1494349508.06,58321,14.75,72546.0,-11.49,-12.47,-12.39,0,*69
1494349509.32,58322,14.75,72544.0,-11.51,-12.53,-12.43,0,*6B
1494349510.56,58323,14.81,72532.8,-11.49,-12.53,-12.39,0,*6E
1494349511.78,58324,14.75,72552.8,-11.49,-12.39,-12.47,0,*6C
1494349512.99,58325,14.81,72550.0,-11.49,-12.39,-12.47,0,*6D
1494349514.2,58326,14.75,72548.0,-11.49,-12.39,-12.39,0,*67
1494349515.41,58327,14.81,72552.3,-11.49,-12.39,-12.39,0,*66
1494349516.67,58328,14.81,72550.5,-11.51,-12.43,-12.53,0,*61
1494349517.89,58329,14.81,72554.0,-11.49,-12.47,-12.47,0,*68
1494349519.12,58330,14.75,72554.0,-11.51,-12.43,-12.43,0,*69
1494349520.38,58331,14.75,72548.0,-11.51,-12.43,-12.53,0,*69
1494349521.62,58332,14.81,72548.8,-11.51,-12.39,-12.39,0,*6B
1494349522.89,58333,14.75,72540.3,-11.55,-12.53,-12.43,0,*6F
1494349524.18,58334,14.81,72556.0,-11.51,-12.53,-12.53,0,*6D
1494349525.41,58335,14.81,72548.0,-11.51,-12.43,-12.43,0,*6C
1494349526.65,58336,14.75,72546.0,-11.51,-12.43,-12.43,0,*6F
1494349527.91,58337,14.81,72546.3,-11.51,-12.53,-12.43,0,*6F
1494349529.13,58338,14.81,72540.8,-11.49,-12.47,-12.39,0,*61
1494349530.42,58339,14.75,72542.3,-11.51,-12.53,-12.53,0,*60
1494349531.66,58340,14.75,72542.5,-11.51,-12.43,-12.43,0,*6E
1494349532.87,58341,14.75,72544.8,-11.49,-12.47,-12.43,0,*62
1494349534.08,58342,14.81,72550.0,-11.49,-12.43,-12.43,0,*65
1494349535.34,58343,14.81,72528.0,-11.51,-12.43,-12.53,0,*6C
1494349536.55,58344,14.81,72556.8,-11.49,-12.39,-12.39,0,*63
1494349537.82,58345,14.75,72550.3,-11.51,-12.53,-12.43,0,*6A
1494349539.11,58346,14.75,72542.8,-11.51,-12.53,-12.53,0,*68
1494349540.4,58347,14.75,72526.0,-11.51,-12.53,-12.53,0,*69
1494349541.64,58348,14.81,72528.3,-11.51,-12.43,-12.43,0,*66
1494349542.93,58349,14.75,72532.0,-11.51,-12.53,-12.53,0,*67
1494349544.2,58350,14.81,72526.0,-11.51,-12.53,-12.43,0,*6E
1494349545.46,58351,14.75,72516.0,-11.51,-12.57,-12.43,0,*6B
1494349546.73,58352,14.75,72512.0,-11.51,-12.53,-12.43,0,*6C
1494349548.02,58353,14.75,72528.5,-11.51,-12.53,-12.53,0,*6C
1494349549.31,58354,14.75,72526.8,-11.51,-12.53,-12.53,0,*6B
1494349550.58,58355,14.75,72528.5,-11.51,-12.53,-12.43,0,*6B
1494349551.79,58356,14.81,72532.8,-11.49,-12.47,-12.47,0,*60
1494349553.03,58357,14.81,72538.3,-11.51,-12.43,-12.43,0,*68
1494349554.26,58358,14.75,72532.5,-11.51,-12.43,-12.43,0,*67
1494349555.52,58359,14.75,72530.5,-11.51,-12.43,-12.53,0,*67
1494349556.76,58360,14.81,72546.3,-11.51,-12.43,-12.43,0,*6C
1494349557.99,58361,14.75,72542.0,-11.51,-12.43,-12.43,0,*6D
1494349559.26,58362,14.81,72546.8,-11.51,-12.53,-12.43,0,*6F
1494349560.52,58363,14.75,72546.0,-11.51,-12.53,-12.43,0,*6E
1494349561.76,58364,14.75,72546.5,-11.51,-12.43,-12.43,0,*68
1494349563.05,58365,14.81,72548.8,-11.51,-12.53,-12.53,0,*69
1494349564.34,58366,14.75,72550.3,-11.51,-12.53,-12.53,0,*6A
1494349565.61,58367,14.75,72554.5,-11.55,-12.53,-12.43,0,*6E
1494349566.88,58368,14.75,72554.3,-11.55,-12.53,-12.43,0,*61
1494349568.18,58369,14.75,72562.3,-11.55,-12.53,-12.53,0,*61
1494349569.39,58370,14.81,72564.3,-11.57,-12.47,-12.47,0,*6B
1494349570.65,58371,14.81,72562.5,-11.57,-12.57,-12.57,0,*6A
1494349571.91,58372,14.75,72552.8,-11.57,-12.57,-12.57,0,*69
1494349573.18,58373,14.81,72546.0,-11.55,-12.43,-12.53,0,*6B
1494349574.47,58374,14.81,72540.5,-11.55,-12.57,-12.53,0,*69
1494349575.74,58375,14.75,72534.8,-11.55,-12.53,-12.43,0,*6D
1494349576.98,58376,14.81,72532.3,-11.55,-12.43,-12.43,0,*6F
1494349578.24,58377,14.75,72512.5,-11.55,-12.43,-12.57,0,*6B
1494349579.48,58378,14.75,72508.0,-11.55,-12.43,-12.43,0,*61
1494349580.74,58379,14.75,72506.3,-11.57,-12.61,-12.57,0,*67
1494349581.98,58380,14.75,72502.3,-11.57,-12.53,-12.47,0,*61
1494349583.25,58381,14.75,72502.3,-11.55,-12.57,-12.43,0,*62
1494349584.51,58382,14.81,72510.5,-11.55,-12.53,-12.43,0,*65
1494349585.81,58383,14.75,72528.8,-11.55,-12.53,-12.57,0,*61
1494349587.07,58384,14.81,72540.3,-11.55,-12.53,-12.43,0,*63
1494349588.34,58385,14.75,72542.8,-11.55,-12.43,-12.57,0,*66
1494349589.6,58386,14.75,72536.8,-11.55,-12.53,-12.43,0,*61
1494349590.84,58387,14.81,72540.0,-11.57,-12.57,-12.47,0,*62
1494349592.1,58388,14.75,72546.8,-11.57,-12.61,-12.57,0,*69
1494349593.34,58389,14.81,72554.5,-11.55,-12.43,-12.43,0,*6F
1494349594.61,58390,14.81,72552.3,-11.55,-12.53,-12.43,0,*66
1494349595.9,58391,14.75,72550.0,-11.55,-12.53,-12.53,0,*66
1494349597.14,58392,14.75,72540.3,-11.55,-12.43,-12.43,0,*65
1494349598.38,58393,14.75,72542.0,-11.57,-12.53,-12.43,0,*67
1494349599.6,58394,14.75,72544.0,-11.57,-12.47,-12.43,0,*65
1494349600.86,58395,14.75,72546.3,-11.57,-12.61,-12.57,0,*65
1494349602.13,58396,14.75,72548.0,-11.55,-12.53,-12.43,0,*60
1494349603.34,58397,14.75,72548.3,-11.57,-12.47,-12.47,0,*62
1494349604.61,58398,14.75,72544.8,-11.55,-12.53,-12.43,0,*6E
1494349605.88,58399,14.75,72552.5,-11.55,-12.53,-12.43,0,*6F
1494349607.09,58400,14.75,72550.8,-11.57,-12.47,-12.47,0,*6B
1494349608.35,58401,14.75,72550.0,-11.57,-12.57,-12.57,0,*6A
1494349609.59,58402,14.75,72552.8,-11.55,-12.43,-12.43,0,*6B
1494349610.86,58403,14.81,72552.0,-11.55,-12.43,-12.53,0,*6B
1494349612.1,58404,14.75,72552.8,-11.57,-12.57,-12.47,0,*6E
1494349613.31,58405,14.81,72562.0,-11.57,-12.47,-12.47,0,*6E
1494349614.58,58406,14.81,72560.3,-11.55,-12.53,-12.43,0,*6E
1494349615.84,58407,14.75,72554.3,-11.57,-12.57,-12.57,0,*6C
1494349617.14,58408,14.75,72534.0,-11.55,-12.53,-12.53,0,*61
1494349618.4,58409,14.75,72526.3,-11.55,-12.53,-12.43,0,*61
1494349619.67,58410,14.75,72518.0,-11.55,-12.53,-12.47,0,*6D
1494349620.89,58411,14.75,72530.3,-11.57,-12.47,-12.47,0,*6B
1494349622.13,58412,14.75,72530.8,-11.57,-12.57,-12.47,0,*69
1494349623.34,58413,14.75,72516.0,-11.57,-12.47,-12.47,0,*69
1494349624.58,58414,14.75,72518.3,-11.57,-12.57,-12.47,0,*6F
1494349625.82,58415,14.81,72518.8,-11.57,-12.57,-12.47,0,*6E
1494349627.05,58416,14.81,72516.3,-11.57,-12.57,-12.47,0,*6D
1494349628.32,58417,14.75,72520.0,-11.55,-12.53,-12.43,0,*6E
1494349629.58,58418,14.75,72524.5,-11.57,-12.57,-12.57,0,*62
1494349630.85,58419,14.75,72522.5,-11.55,-12.43,-12.53,0,*60
1494349632.11,58420,14.75,72518.8,-11.57,-12.57,-12.57,0,*69
1494349633.37,58421,14.75,72538.8,-11.57,-12.57,-12.57,0,*68
1494349634.64,58422,14.75,72542.5,-11.57,-12.57,-12.57,0,*6B
1494349635.87,58423,14.75,72544.5,-11.57,-12.57,-12.47,0,*6B
1494349637.14,58424,14.75,72546.0,-11.57,-12.57,-12.57,0,*6D
1494349638.38,58425,14.75,72554.5,-11.59,-12.47,-12.47,0,*62
1494349639.67,58426,14.75,72548.5,-11.59,-12.57,-12.57,0,*61
1494349640.96,58427,14.75,72546.8,-11.59,-12.57,-12.57,0,*60
1494349642.24,58428,14.75,72542.8,-11.59,-12.61,-12.57,0,*6A
1494349643.48,58429,14.75,72540.5,-11.57,-12.47,-12.57,0,*61
1494349644.74,58430,14.75,72536.8,-11.57,-12.57,-12.57,0,*68
1494349645.98,58431,14.81,72544.8,-11.57,-12.57,-12.47,0,*68
1494349647.24,58432,14.75,72542.0,-11.57,-12.57,-12.57,0,*6A
1494349648.5,58433,14.75,72542.5,-11.57,-12.61,-12.57,0,*6E
1494349649.72,58434,14.75,72536.3,-11.57,-12.47,-12.47,0,*6C
1494349650.98,58435,14.75,72528.0,-11.57,-12.57,-12.61,0,*68
1494349652.22,58436,14.75,72546.8,-11.57,-12.57,-12.47,0,*6F
1494349653.48,58437,14.75,72542.3,-11.57,-12.57,-12.57,0,*6F
1494349654.74,58438,14.75,72544.0,-11.57,-12.57,-12.57,0,*60
1494349656.0,58439,14.75,72536.5,-11.57,-12.61,-12.57,0,*64
1494349657.26,58440,14.75,72518.8,-11.57,-12.57,-12.57,0,*6F
1494349658.5,58441,14.75,72524.3,-11.57,-12.57,-12.47,0,*6F
1494349659.79,58442,14.75,72534.3,-11.59,-12.57,-12.57,0,*63
1494349661.05,58443,14.75,72536.5,-11.57,-12.57,-12.57,0,*6C
1494349662.31,58444,14.75,72534.0,-11.57,-12.57,-12.57,0,*6B
1494349663.55,58445,14.75,72536.5,-11.57,-12.61,-12.47,0,*6E
1494349664.83,58446,14.75,72542.0,-11.59,-12.61,-12.57,0,*62
1494349666.1,58447,14.75,72538.8,-11.59,-12.61,-12.47,0,*62
1494349667.38,58448,14.81,72536.8,-11.59,-12.61,-12.57,0,*6C
1494349668.67,58449,14.75,72534.3,-11.59,-12.57,-12.57,0,*68
1494349669.96,58450,14.75,72532.8,-11.59,-12.57,-12.61,0,*65
1494349671.25,58451,14.75,72538.8,-11.59,-12.57,-12.57,0,*61
1494349672.52,58452,14.75,72544.3,-11.59,-12.47,-12.57,0,*63
1494349673.76,58453,14.75,72552.8,-11.59,-12.47,-12.47,0,*63
1494349675.05,58454,14.75,72548.3,-11.59,-12.57,-12.57,0,*64
1494349676.33,58455,14.75,72542.0,-11.59,-12.57,-12.57,0,*65
1494349677.6,58456,14.75,72538.0,-11.59,-12.57,-12.47,0,*67
1494349678.86,58457,14.75,72538.5,-11.61,-12.61,-12.53,0,*6D
1494349680.13,58458,14.75,72544.5,-11.59,-12.47,-12.57,0,*69
1494349681.39,58459,14.75,72544.0,-11.59,-12.57,-12.47,0,*68
1494349682.66,58460,14.75,72556.0,-11.59,-12.57,-12.47,0,*62
1494349683.95,58461,14.75,72558.3,-11.59,-12.57,-12.57,0,*62
1494349685.19,58462,14.75,72556.3,-11.59,-12.47,-12.47,0,*61
1494349686.45,58463,14.75,72554.3,-11.59,-12.57,-12.47,0,*61
1494349687.69,58464,14.75,72548.0,-11.59,-12.47,-12.47,0,*67
1494349688.96,58465,14.75,72544.8,-11.59,-12.57,-12.47,0,*67
1494349690.22,58466,14.75,72544.5,-11.59,-12.47,-12.57,0,*64